| time (UTC) | temp F | wind direction | speed MPH | gust MPH | rain 1hr in | rain 24hr in | rain mn in | humidity % | barometer mb |
| 20260905022601 | 89 | 202 | 5.0 | 7.0 | 0.00 | 0.00 | 0.00 | 14 | 1010.5 |
| 20260905022101 | 89 | 207 | 2.0 | 8.0 | 0.00 | 0.00 | 0.00 | 13 | 1010.4 |
| 20260905021602 | 89 | 183 | 2.0 | 12.0 | 0.00 | 0.00 | 0.00 | 13 | 1010.4 |
| 20260905021102 | 90 | 197 | 8.0 | 12.0 | 0.00 | 0.00 | 0.00 | 13 | 1010.4 |
| 20260905020602 | 90 | 182 | 3.0 | 10.0 | 0.00 | 0.00 | 0.00 | 13 | 1010.4 |
| 20260905015601 | 90 | 360 | 2.0 | 13.0 | 0.00 | 0.00 | 0.00 | 12 | 1010.2 |
| 20260905015101 | 91 | 360 | 6.0 | 13.0 | 0.00 | 0.00 | 0.00 | 12 | 1010.1 |
| 20260905014601 | 91 | 360 | 5.0 | 11.0 | 0.00 | 0.00 | 0.00 | 12 | 1010.1 |
| 20260905014101 | 91 | 360 | 10.0 | 11.0 | 0.00 | 0.00 | 0.00 | 12 | 1010.1 |
| 20260905013601 | 91 | 360 | 4.0 | 10.0 | 0.00 | 0.00 | 0.00 | 12 | 1010.1 |
| 20260905013102 | 92 | 227 | 9.0 | 11.0 | 0.00 | 0.00 | 0.00 | 12 | 1010.3 |
| 20260905012601 | 92 | 223 | 3.0 | 12.0 | 0.00 | 0.00 | 0.00 | 12 | 1010.3 |
| 20260905011101 | 92 | 177 | 6.0 | 10.0 | 0.00 | 0.00 | 0.00 | 11 | 1010.2 |
| 20260905010601 | 93 | 200 | 3.0 | 10.0 | 0.00 | 0.00 | 0.00 | 12 | 1010.2 |
| 20260905005601 | 93 | 148 | 2.0 | 11.0 | 0.00 | 0.00 | 0.00 | 11 | 1010.1 |
| 20260905004602 | 94 | 174 | 4.0 | 13.0 | 0.00 | 0.00 | 0.00 | 11 | 1010.3 |
| 20260905004102 | 94 | 178 | 5.0 | 12.0 | 0.00 | 0.00 | 0.00 | 11 | 1010.1 |
| 20260905003601 | 94 | 180 | 7.0 | 13.0 | 0.00 | 0.00 | 0.00 | 11 | 1010.1 |
| 20260905002601 | 94 | 181 | 5.0 | 14.0 | 0.00 | 0.00 | 0.00 | 11 | 1010.0 |
| 20260905002102 | 94 | 190 | 6.0 | 14.0 | 0.00 | 0.00 | 0.00 | 11 | 1010.1 |
| 20260905001601 | 95 | 171 | 5.0 | 14.0 | 0.00 | 0.00 | 0.00 | 11 | 1010.4 |
| 20260905001102 | 95 | 169 | 5.0 | 14.0 | 0.00 | 0.00 | 0.00 | 11 | 1010.2 |
| 20260905000601 | 95 | 188 | 4.0 | 14.0 | 0.00 | 0.00 | 0.00 | 11 | 1010.3 |
| 20260905000101 | 95 | 192 | 7.0 | 15.0 | 0.00 | 0.00 | 0.00 | 11 | 1010.3 |
| 20260904235602 | 95 | 191 | 5.0 | 17.0 | 0.00 | 0.00 | 0.00 | 11 | 1010.3 |
| 20260904235101 | 95 | 188 | 15.0 | 17.0 | 0.00 | 0.00 | 0.00 | 11 | 1010.2 |
| 20260904234601 | 95 | 194 | 9.0 | 16.0 | 0.00 | 0.00 | 0.00 | 11 | 1010.3 |
| 20260904234101 | 95 | 184 | 7.0 | 12.0 | 0.00 | 0.00 | 0.00 | 11 | 1010.3 |
| 20260904233601 | 95 | 175 | 4.0 | 12.0 | 0.00 | 0.00 | 0.00 | 11 | 1010.3 |
| 20260904233101 | 96 | 157 | 4.0 | 12.0 | 0.00 | 0.00 | 0.00 | 11 | 1010.5 |
| 20260904231601 | 96 | 167 | 8.0 | 14.0 | 0.00 | 0.00 | 0.00 | 11 | 1010.5 |
| 20260904231101 | 95 | 190 | 5.0 | 14.0 | 0.00 | 0.00 | 0.00 | 11 | 1010.3 |
| 20260904230601 | 96 | 190 | 10.0 | 17.0 | 0.00 | 0.00 | 0.00 | 11 | 1010.5 |
| 20260904230101 | 96 | 179 | 10.0 | 17.0 | 0.00 | 0.00 | 0.00 | 11 | 1010.5 |
| 20260904225602 | 96 | 202 | 3.0 | 10.0 | 0.00 | 0.00 | 0.00 | 12 | 1010.5 |
| 20260904225101 | 95 | 180 | 2.0 | 11.0 | 0.00 | 0.00 | 0.00 | 12 | 1010.7 |
| 20260904224601 | 95 | 182 | 6.0 | 11.0 | 0.00 | 0.00 | 0.00 | 11 | 1010.8 |
| 20260904224101 | 96 | 176 | 2.0 | 15.0 | 0.00 | 0.00 | 0.00 | 11 | 1010.9 |
| 20260904223601 | 96 | 184 | 6.0 | 15.0 | 0.00 | 0.00 | 0.00 | 11 | 1010.9 |
| 20260904223102 | 95 | 184 | 4.0 | 15.0 | 0.00 | 0.00 | 0.00 | 12 | 1010.9 |
| 20260904222601 | 96 | 180 | 9.0 | 15.0 | 0.00 | 0.00 | 0.00 | 12 | 1011.1 |
| 20260904222101 | 95 | 238 | 13.0 | 13.0 | 0.00 | 0.00 | 0.00 | 12 | 1011.0 |
| 20260904221102 | 95 | 175 | 5.0 | 11.0 | 0.00 | 0.00 | 0.00 | 11 | 1011.2 |
| 20260904220601 | 95 | 156 | 7.0 | 13.0 | 0.00 | 0.00 | 0.00 | 12 | 1011.2 |
| 20260904220101 | 95 | 170 | 11.0 | 13.0 | 0.00 | 0.00 | 0.00 | 12 | 1011.3 |
| 20260904215601 | 95 | 119 | 1.0 | 12.0 | 0.00 | 0.00 | 0.00 | 12 | 1011.1 |
| 20260904215101 | 95 | 167 | 8.0 | 12.0 | 0.00 | 0.00 | 0.00 | 12 | 1011.2 |
| 20260904214601 | 94 | 134 | 3.0 | 14.0 | 0.00 | 0.00 | 0.00 | 13 | 1011.2 |
| 20260904214101 | 95 | 170 | 3.0 | 14.0 | 0.00 | 0.00 | 0.00 | 12 | 1011.3 |
| 20260904213601 | 95 | 194 | 1.0 | 12.0 | 0.00 | 0.00 | 0.00 | 13 | 1011.5 |
| 20260904213101 | 95 | 157 | 3.0 | 13.0 | 0.00 | 0.00 | 0.00 | 12 | 1011.4 |
| 20260904212601 | 94 | 166 | 3.0 | 13.0 | 0.00 | 0.00 | 0.00 | 12 | 1011.4 |
| 20260904211601 | 94 | 163 | 5.0 | 15.0 | 0.00 | 0.00 | 0.00 | 13 | 1011.5 |
| 20260904211101 | 94 | 161 | 7.0 | 15.0 | 0.00 | 0.00 | 0.00 | 13 | 1011.5 |
| 20260904210601 | 93 | 171 | 4.0 | 15.0 | 0.00 | 0.00 | 0.00 | 14 | 1011.6 |
| 20260904205601 | 93 | 116 | 9.0 | 11.0 | 0.00 | 0.00 | 0.00 | 13 | 1011.8 |
| 20260904205101 | 93 | 198 | 4.0 | 12.0 | 0.00 | 0.00 | 0.00 | 13 | 1011.7 |
| 20260904204601 | 94 | 212 | 4.0 | 12.0 | 0.00 | 0.00 | 0.00 | 13 | 1012.0 |
| 20260904203601 | 93 | 143 | 5.0 | 16.0 | 0.00 | 0.00 | 0.00 | 13 | 1012.0 |
| 20260904202601 | 92 | 186 | 6.0 | 15.0 | 0.00 | 0.00 | 0.00 | 13 | 1011.8 |
| 20260904202101 | 93 | 161 | 8.0 | 15.0 | 0.00 | 0.00 | 0.00 | 13 | 1012.0 |
| 20260904201601 | 92 | 194 | 12.0 | 15.0 | 0.00 | 0.00 | 0.00 | 13 | 1012.0 |
| 20260904201101 | 92 | 153 | 4.0 | 14.0 | 0.00 | 0.00 | 0.00 | 13 | 1012.1 |
| 20260904200601 | 92 | 153 | 11.0 | 14.0 | 0.00 | 0.00 | 0.00 | 12 | 1012.1 |
| 20260904195601 | 92 | 200 | 7.0 | 14.0 | 0.00 | 0.00 | 0.00 | 14 | 1012.3 |
| 20260904194601 | 92 | 150 | 6.0 | 18.0 | 0.00 | 0.00 | 0.00 | 14 | 1012.6 |
| 20260904194101 | 92 | 157 | 6.0 | 13.0 | 0.00 | 0.00 | 0.00 | 14 | 1012.6 |
| 20260904193101 | 91 | 360 | 13.0 | 20.0 | 0.00 | 0.00 | 0.00 | 14 | 1012.5 |
| 20260904192601 | 91 | 360 | 10.0 | 20.0 | 0.00 | 0.00 | 0.00 | 14 | 1012.7 |
| 20260904192101 | 91 | 360 | 6.0 | 15.0 | 0.00 | 0.00 | 0.00 | 15 | 1012.7 |
| 20260904191601 | 90 | 360 | 3.0 | 18.0 | 0.00 | 0.00 | 0.00 | 14 | 1012.7 |
| 20260904191101 | 90 | 360 | 7.0 | 18.0 | 0.00 | 0.00 | 0.00 | 14 | 1012.8 |
| 20260904190601 | 90 | 360 | 14.0 | 15.0 | 0.00 | 0.00 | 0.00 | 14 | 1012.9 |
| 20260904190101 | 90 | 360 | 4.0 | 17.0 | 0.00 | 0.00 | 0.00 | 15 | 1012.9 |
| 20260904185601 | 89 | 360 | 11.0 | 17.0 | 0.00 | 0.00 | 0.00 | 14 | 1013.2 |
| 20260904185100 | 89 | 360 | 12.0 | 14.0 | 0.00 | 0.00 | 0.00 | 15 | 1013.2 |
| 20260904184601 | 90 | 360 | 5.0 | 15.0 | 0.00 | 0.00 | 0.00 | 16 | 1013.3 |
| 20260904183100 | 88 | 360 | 3.0 | 13.0 | 0.00 | 0.00 | 0.00 | 17 | 1013.2 |
| 20260904182601 | 88 | 360 | 7.0 | 14.0 | 0.00 | 0.00 | 0.00 | 17 | 1013.3 |
| 20260904182101 | 87 | 360 | 6.0 | 15.0 | 0.00 | 0.00 | 0.00 | 17 | 1013.3 |
| 20260904181600 | 87 | 360 | 6.0 | 18.0 | 0.00 | 0.00 | 0.00 | 17 | 1013.3 |
| 20260904181101 | 87 | 360 | 7.0 | 18.0 | 0.00 | 0.00 | 0.00 | 17 | 1013.3 |
| 20260904180601 | 87 | 360 | 7.0 | 17.0 | 0.00 | 0.00 | 0.00 | 17 | 1013.2 |
| 20260904175601 | 86 | 360 | 9.0 | 16.0 | 0.00 | 0.00 | 0.00 | 18 | 1013.2 |
| 20260904175101 | 87 | 360 | 15.0 | 20.0 | 0.00 | 0.00 | 0.00 | 18 | 1013.3 |
| 20260904174600 | 86 | 360 | 4.0 | 20.0 | 0.00 | 0.00 | 0.00 | 18 | 1013.3 |
| 20260904174101 | 86 | 360 | 14.0 | 14.0 | 0.00 | 0.00 | 0.00 | 18 | 1013.3 |
| 20260904173601 | 86 | 360 | 13.0 | 15.0 | 0.00 | 0.00 | 0.00 | 18 | 1013.1 |
| 20260904173100 | 86 | 360 | 10.0 | 15.0 | 0.00 | 0.00 | 0.00 | 19 | 1013.4 |
| 20260904172601 | 85 | 360 | 9.0 | 12.0 | 0.00 | 0.00 | 0.00 | 19 | 1013.0 |
| 20260904172100 | 85 | 360 | 5.0 | 14.0 | 0.00 | 0.00 | 0.00 | 20 | 1013.2 |
| 20260904171601 | 84 | 360 | 4.0 | 14.0 | 0.00 | 0.00 | 0.00 | 20 | 1013.2 |
| 20260904171101 | 84 | 360 | 9.0 | 11.0 | 0.00 | 0.00 | 0.00 | 20 | 1013.1 |
| 20260904170101 | 83 | 360 | 4.0 | 13.0 | 0.00 | 0.00 | 0.00 | 21 | 1012.9 |
| 20260904165600 | 83 | 360 | 8.0 | 12.0 | 0.00 | 0.00 | 0.00 | 22 | 1013.0 |
| 20260904165100 | 83 | 360 | 11.0 | 12.0 | 0.00 | 0.00 | 0.00 | 22 | 1013.0 |
| 20260904164600 | 83 | 360 | 6.0 | 12.0 | 0.00 | 0.00 | 0.00 | 22 | 1012.9 |
| 20260904164101 | 82 | 360 | 3.0 | 12.0 | 0.00 | 0.00 | 0.00 | 22 | 1012.8 |
| 20260904163601 | 82 | 360 | 6.0 | 12.0 | 0.00 | 0.00 | 0.00 | 23 | 1013.0 |
| 20260904163100 | 82 | 360 | 7.0 | 14.0 | 0.00 | 0.00 | 0.00 | 23 | 1012.9 |
| 20260904162100 | 81 | 360 | 11.0 | 13.0 | 0.00 | 0.00 | 0.00 | 24 | 1012.8 |
| 20260904161601 | 81 | 360 | 7.0 | 12.0 | 0.00 | 0.00 | 0.00 | 25 | 1012.8 |
| 20260904161100 | 81 | 360 | 4.0 | 12.0 | 0.00 | 0.00 | 0.00 | 25 | 1012.7 |
| 20260904160602 | 81 | 360 | 5.0 | 11.0 | 0.00 | 0.00 | 0.00 | 26 | 1012.7 |
| 20260904160100 | 80 | 360 | 10.0 | 10.0 | 0.00 | 0.00 | 0.00 | 25 | 1012.7 |
| 20260904155601 | 80 | 360 | 1.0 | 11.0 | 0.00 | 0.00 | 0.00 | 26 | 1012.9 |
| 20260904155100 | 80 | 360 | 4.0 | 11.0 | 0.00 | 0.00 | 0.00 | 26 | 1012.8 |
| 20260904154601 | 80 | 360 | 2.0 | 11.0 | 0.00 | 0.00 | 0.00 | 26 | 1012.9 |
| 20260904154101 | 79 | 360 | 5.0 | 11.0 | 0.00 | 0.00 | 0.00 | 27 | 1012.8 |
| 20260904153600 | 79 | 360 | 3.0 | 7.0 | 0.00 | 0.00 | 0.00 | 27 | 1012.8 |
| 20260904153100 | 79 | 360 | 6.0 | 9.0 | 0.00 | 0.00 | 0.00 | 28 | 1012.7 |
| 20260904152600 | 79 | 360 | 3.0 | 9.0 | 0.00 | 0.00 | 0.00 | 27 | 1012.7 |
| 20260904152101 | 78 | 360 | 4.0 | 8.0 | 0.00 | 0.00 | 0.00 | 28 | 1012.7 |
| 20260904151600 | 78 | 360 | 2.0 | 8.0 | 0.00 | 0.00 | 0.00 | 28 | 1012.7 |
| 20260904151101 | 78 | 360 | 4.0 | 8.0 | 0.00 | 0.00 | 0.00 | 28 | 1012.7 |
| 20260904150601 | 78 | 360 | 3.0 | 7.0 | 0.00 | 0.00 | 0.00 | 29 | 1012.7 |
| 20260904150100 | 78 | 360 | 3.0 | 7.0 | 0.00 | 0.00 | 0.00 | 29 | 1012.6 |
| 20260904145100 | 77 | 360 | 3.0 | 8.0 | 0.00 | 0.00 | 0.00 | 30 | 1012.5 |
| 20260904144600 | 77 | 360 | 3.0 | 8.0 | 0.00 | 0.00 | 0.00 | 30 | 1012.5 |
| 20260904143100 | 76 | 360 | 5.0 | 6.0 | 0.00 | 0.00 | 0.00 | 31 | 1012.3 |
| 20260904141600 | 76 | 114 | 7.0 | 10.0 | 0.00 | 0.00 | 0.00 | 31 | 1012.0 |
| 20260904141100 | 75 | 96 | 2.0 | 10.0 | 0.00 | 0.00 | 0.00 | 31 | 1012.0 |
| 20260904140601 | 75 | 65 | 4.0 | 8.0 | 0.00 | 0.00 | 0.00 | 32 | 1011.9 |
| 20260904135101 | 74 | 84 | 3.0 | 7.0 | 0.00 | 0.00 | 0.00 | 33 | 1011.8 |
| 20260904134600 | 73 | 90 | 3.0 | 5.0 | 0.00 | 0.00 | 0.00 | 33 | 1011.8 |
| 20260904134100 | 73 | 95 | 3.0 | 3.0 | 0.00 | 0.00 | 0.00 | 33 | 1011.8 |
| 20260904133600 | 73 | 95 | 2.0 | 7.0 | 0.00 | 0.00 | 0.00 | 33 | 1011.8 |
| 20260904133100 | 73 | 96 | 1.0 | 7.0 | 0.00 | 0.00 | 0.00 | 33 | 1011.7 |
| 20260904132600 | 74 | 95 | 2.0 | 6.0 | 0.00 | 0.00 | 0.00 | 33 | 1011.7 |
| 20260904132101 | 74 | 107 | 3.0 | 8.0 | 0.00 | 0.00 | 0.00 | 33 | 1011.5 |
| 20260904131601 | 74 | 107 | 5.0 | 8.0 | 0.00 | 0.00 | 0.00 | 33 | 1011.4 |
| 20260904131100 | 73 | 70 | 5.0 | 7.0 | 0.00 | 0.00 | 0.00 | 33 | 1011.3 |
| 20260904130600 | 73 | 57 | 2.0 | 7.0 | 0.00 | 0.00 | 0.00 | 33 | 1011.3 |
| 20260904130100 | 73 | 60 | 5.0 | 8.0 | 0.00 | 0.00 | 0.00 | 33 | 1011.3 |
| 20260904125601 | 73 | 69 | 4.0 | 8.0 | 0.00 | 0.00 | 0.00 | 33 | 1011.3 |
| 20260904125100 | 73 | 79 | 3.0 | 7.0 | 0.00 | 0.00 | 0.00 | 33 | 1011.2 |
| 20260904124600 | 73 | 69 | 3.0 | 10.0 | 0.00 | 0.00 | 0.00 | 33 | 1011.1 |
| 20260904123601 | 74 | 36 | 7.0 | 8.0 | 0.00 | 0.00 | 0.00 | 32 | 1011.3 |
| 20260904123100 | 74 | 58 | 2.0 | 7.0 | 0.00 | 0.00 | 0.00 | 32 | 1011.2 |
| 20260904122600 | 74 | 81 | 2.0 | 6.0 | 0.00 | 0.00 | 0.00 | 31 | 1011.2 |
| 20260904122100 | 74 | 72 | 2.0 | 6.0 | 0.00 | 0.00 | 0.00 | 31 | 1011.1 |
| 20260904121600 | 74 | 81 | 1.0 | 5.0 | 0.00 | 0.00 | 0.00 | 31 | 1011.0 |
| 20260904121100 | 74 | 76 | 4.0 | 7.0 | 0.00 | 0.00 | 0.00 | 31 | 1011.0 |
| 20260904120100 | 74 | 82 | 3.0 | 9.0 | 0.00 | 0.00 | 0.00 | 30 | 1010.8 |
| 20260904115600 | 74 | 66 | 7.0 | 10.0 | 0.00 | 0.00 | 0.00 | 30 | 1010.8 |
| 20260904115100 | 74 | 67 | 5.0 | 10.0 | 0.00 | 0.00 | 0.00 | 30 | 1010.9 |
| 20260904113530 | 75 | 84 | 8.0 | 8.0 | 0.00 | 0.00 | 0.00 | 30 | 1010.9 |
| 20260904113100 | 75 | 97 | 7.0 | 7.0 | 0.00 | 0.00 | 0.00 | 30 | 1010.9 |
| 20260904111600 | 75 | 89 | 5.0 | 9.0 | 0.00 | 0.00 | 0.00 | 29 | 1010.8 |
| 20260904111100 | 75 | 71 | 4.0 | 12.0 | 0.00 | 0.00 | 0.00 | 28 | 1010.6 |
| 20260904110600 | 75 | 66 | 4.0 | 12.0 | 0.00 | 0.00 | 0.00 | 28 | 1010.5 |
| 20260904110100 | 75 | 84 | 7.0 | 9.0 | 0.00 | 0.00 | 0.00 | 28 | 1010.5 |
| 20260904105601 | 75 | 107 | 7.0 | 8.0 | 0.00 | 0.00 | 0.00 | 27 | 1010.5 |
| 20260904105030 | 75 | 123 | 1.0 | 9.0 | 0.00 | 0.00 | 0.00 | 27 | 1010.5 |
| 20260904104600 | 75 | 85 | 6.0 | 9.0 | 0.00 | 0.00 | 0.00 | 26 | 1010.5 |
| 20260904104100 | 75 | 96 | 5.0 | 9.0 | 0.00 | 0.00 | 0.00 | 26 | 1010.5 |
| 20260904103600 | 75 | 81 | 8.0 | 9.0 | 0.00 | 0.00 | 0.00 | 26 | 1010.4 |
| 20260904103100 | 75 | 79 | 6.0 | 9.0 | 0.00 | 0.00 | 0.00 | 26 | 1010.4 |
| 20260904102600 | 75 | 75 | 4.0 | 9.0 | 0.00 | 0.00 | 0.00 | 26 | 1010.4 |
| 20260904101600 | 75 | 69 | 2.0 | 7.0 | 0.00 | 0.00 | 0.00 | 25 | 1010.3 |
| 20260904101100 | 74 | 68 | 3.0 | 7.0 | 0.00 | 0.00 | 0.00 | 25 | 1010.3 |
| 20260904100600 | 74 | 75 | 3.0 | 6.0 | 0.00 | 0.00 | 0.00 | 24 | 1010.2 |
| 20260904100100 | 74 | 72 | 5.0 | 7.0 | 0.00 | 0.00 | 0.00 | 24 | 1010.1 |
| 20260904095600 | 75 | 75 | 4.0 | 7.0 | 0.00 | 0.00 | 0.00 | 23 | 1010.2 |
| 20260904095100 | 75 | 90 | 5.0 | 6.0 | 0.00 | 0.00 | 0.00 | 23 | 1010.2 |
| 20260904094100 | 75 | 111 | 3.0 | 7.0 | 0.00 | 0.00 | 0.00 | 23 | 1010.1 |
| 20260904093600 | 75 | 136 | 2.0 | 4.0 | 0.00 | 0.00 | 0.00 | 23 | 1010.2 |
| 20260904092600 | 75 | 137 | 3.0 | 4.0 | 0.00 | 0.00 | 0.00 | 22 | 1010.1 |
| 20260904092100 | 75 | 139 | 3.0 | 4.0 | 0.00 | 0.00 | 0.00 | 21 | 1010.0 |
| 20260904091600 | 76 | 147 | 1.0 | 3.0 | 0.00 | 0.00 | 0.00 | 20 | 1010.3 |
| 20260904091100 | 76 | 147 | 1.0 | 4.0 | 0.00 | 0.00 | 0.00 | 20 | 1010.2 |
| 20260904090600 | 76 | 147 | 0.0 | 4.0 | 0.00 | 0.00 | 0.00 | 20 | 1010.1 |
| 20260904090100 | 76 | 147 | 3.0 | 3.0 | 0.00 | 0.00 | 0.00 | 20 | 1010.2 |
| 20260904085600 | 77 | 147 | 1.0 | 4.0 | 0.00 | 0.00 | 0.00 | 19 | 1010.2 |
| 20260904085100 | 77 | 147 | 2.0 | 4.0 | 0.00 | 0.00 | 0.00 | 20 | 1010.3 |
| 20260904084600 | 77 | 147 | 1.0 | 3.0 | 0.00 | 0.00 | 0.00 | 20 | 1010.3 |
| 20260904084100 | 77 | 147 | 1.0 | 3.0 | 0.00 | 0.00 | 0.00 | 20 | 1010.2 |
| 20260904083100 | 78 | 147 | 0.0 | 3.0 | 0.00 | 0.00 | 0.00 | 22 | 1010.5 |
| 20260904082100 | 78 | 139 | 1.0 | 3.0 | 0.00 | 0.00 | 0.00 | 20 | 1010.3 |
| 20260904081100 | 78 | 139 | 1.0 | 2.0 | 0.00 | 0.00 | 0.00 | 19 | 1010.5 |
| 20260904080600 | 78 | 132 | 1.0 | 2.0 | 0.00 | 0.00 | 0.00 | 18 | 1010.6 |
| 20260904080100 | 78 | 132 | 1.0 | 3.0 | 0.00 | 0.00 | 0.00 | 18 | 1010.6 |
| 20260904075600 | 78 | 131 | 2.0 | 3.0 | 0.00 | 0.00 | 0.00 | 17 | 1010.2 |
| 20260904075100 | 78 | 131 | 2.0 | 3.0 | 0.00 | 0.00 | 0.00 | 17 | 1010.1 |
| 20260904074600 | 79 | 131 | 1.0 | 2.0 | 0.00 | 0.00 | 0.00 | 17 | 1010.2 |
| 20260904074030 | 79 | 131 | 0.0 | 2.0 | 0.00 | 0.00 | 0.00 | 16 | 1010.2 |
| 20260904073100 | 80 | 131 | 0.0 | 2.0 | 0.00 | 0.00 | 0.00 | 16 | 1010.3 |
| 20260904072600 | 80 | 131 | 0.0 | 2.0 | 0.00 | 0.00 | 0.00 | 15 | 1010.2 |
| 20260904072030 | 80 | 131 | 0.0 | 2.0 | 0.00 | 0.00 | 0.00 | 15 | 1010.0 |
| 20260904071600 | 80 | 131 | 1.0 | 3.0 | 0.00 | 0.00 | 0.00 | 15 | 1010.0 |
| 20260904071100 | 80 | 131 | 1.0 | 4.0 | 0.00 | 0.00 | 0.00 | 15 | 1010.0 |
| 20260904070559 | 81 | 131 | 2.0 | 4.0 | 0.00 | 0.00 | 0.00 | 15 | 1010.3 |
| 20260904070100 | 81 | 131 | 1.0 | 4.0 | 0.00 | 0.00 | 0.00 | 14 | 1010.2 |
| 20260904065600 | 81 | 131 | 2.0 | 4.0 | 0.00 | 0.00 | 0.00 | 14 | 1010.0 |
| 20260904065100 | 81 | 131 | 4.0 | 5.0 | 0.00 | 0.00 | 0.00 | 14 | 1009.9 |
| 20260904064059 | 81 | 137 | 2.0 | 3.0 | 0.00 | 0.00 | 0.00 | 15 | 1010.1 |
| 20260904063559 | 82 | 137 | 0.0 | 5.0 | 0.00 | 0.00 | 0.00 | 15 | 1010.0 |
| 20260904063100 | 82 | 103 | 0.0 | 5.0 | 0.00 | 0.00 | 0.00 | 15 | 1010.0 |
| 20260904062559 | 82 | 114 | 0.0 | 5.0 | 0.00 | 0.00 | 0.00 | 15 | 1009.9 |
| 20260904062059 | 82 | 114 | 3.0 | 5.0 | 0.00 | 0.00 | 0.00 | 15 | 1009.8 |
| 20260904061600 | 82 | 116 | 2.0 | 7.0 | 0.00 | 0.00 | 0.00 | 14 | 1009.7 |
| 20260904061059 | 82 | 109 | 2.0 | 10.0 | 0.00 | 0.00 | 0.00 | 14 | 1009.7 |
| 20260904060600 | 82 | 115 | 2.0 | 10.0 | 0.00 | 0.00 | 0.00 | 14 | 1009.7 |
| 20260904055059 | 82 | 111 | 3.0 | 8.0 | 0.00 | 0.00 | 0.00 | 14 | 1009.3 |
| 20260904054600 | 82 | 116 | 5.0 | 8.0 | 0.00 | 0.00 | 0.00 | 14 | 1009.4 |
| 20260904054100 | 83 | 107 | 4.0 | 7.0 | 0.00 | 0.00 | 0.00 | 15 | 1009.5 |
| 20260904053059 | 83 | 76 | 5.0 | 7.0 | 0.00 | 0.00 | 0.00 | 15 | 1009.5 |
| 20260904052559 | 83 | 97 | 3.0 | 7.0 | 0.00 | 0.00 | 0.00 | 15 | 1009.5 |
| 20260904052059 | 83 | 91 | 3.0 | 7.0 | 0.00 | 0.00 | 0.00 | 15 | 1009.6 |
| 20260904051059 | 84 | 111 | 1.0 | 5.0 | 0.00 | 0.00 | 0.00 | 15 | 1009.6 |
| 20260904050559 | 84 | 113 | 4.0 | 5.0 | 0.00 | 0.00 | 0.00 | 15 | 1009.7 |
| 20260904045600 | 85 | 138 | 2.0 | 5.0 | 0.00 | 0.00 | 0.00 | 14 | 1009.4 |
| 20260904045100 | 85 | 138 | 4.0 | 5.0 | 0.00 | 0.00 | 0.00 | 14 | 1009.5 |
| 20260904044559 | 85 | 145 | 0.0 | 5.0 | 0.00 | 0.00 | 0.00 | 14 | 1009.5 |
| 20260904043559 | 85 | 164 | 3.0 | 7.0 | 0.00 | 0.00 | 0.00 | 14 | 1009.4 |
| 20260904043100 | 85 | 199 | 1.0 | 7.0 | 0.00 | 0.00 | 0.00 | 14 | 1009.6 |
| 20260904042559 | 85 | 133 | 1.0 | 6.0 | 0.00 | 0.00 | 0.00 | 14 | 1009.4 |
| 20260904042059 | 85 | 171 | 5.0 | 6.0 | 0.00 | 0.00 | 0.00 | 14 | 1009.5 |
| 20260904041559 | 86 | 202 | 4.0 | 11.0 | 0.00 | 0.00 | 0.00 | 13 | 1009.5 |
| 20260904041100 | 86 | 179 | 4.0 | 11.0 | 0.00 | 0.00 | 0.00 | 13 | 1009.6 |
| 20260904035600 | 86 | 178 | 6.0 | 10.0 | 0.00 | 0.00 | 0.00 | 13 | 1009.1 |
| 20260904035059 | 86 | 190 | 6.0 | 12.0 | 0.00 | 0.00 | 0.00 | 13 | 1009.0 |
| 20260904034559 | 86 | 190 | 9.0 | 12.0 | 0.00 | 0.00 | 0.00 | 13 | 1009.0 |
| 20260904034059 | 86 | 189 | 12.0 | 13.0 | 0.00 | 0.00 | 0.00 | 13 | 1009.0 |
| 20260904033559 | 86 | 176 | 4.0 | 13.0 | 0.00 | 0.00 | 0.00 | 13 | 1008.9 |
| 20260904033100 | 86 | 202 | 9.0 | 10.0 | 0.00 | 0.00 | 0.00 | 13 | 1008.7 |
| 20260904032559 | 86 | 181 | 3.0 | 8.0 | 0.00 | 0.00 | 0.00 | 13 | 1008.8 |
| 20260904032100 | 86 | 169 | 4.0 | 8.0 | 0.00 | 0.00 | 0.00 | 13 | 1008.7 |
| 20260904031559 | 86 | 202 | 2.0 | 8.0 | 0.00 | 0.00 | 0.00 | 12 | 1008.8 |
| 20260904030559 | 87 | 178 | 2.0 | 8.0 | 0.00 | 0.00 | 0.00 | 12 | 1008.6 |
| 20260904030059 | 87 | 171 | 5.0 | 8.0 | 0.00 | 0.00 | 0.00 | 12 | 1008.7 |
| 20260904025559 | 87 | 202 | 6.0 | 10.0 | 0.00 | 0.00 | 0.00 | 12 | 1008.5 |
| 20260904025100 | 87 | 184 | 2.0 | 10.0 | 0.00 | 0.00 | 0.00 | 12 | 1008.5 |
| 20260904024559 | 87 | 191 | 5.0 | 8.0 | 0.00 | 0.00 | 0.00 | 12 | 1008.4 |
| 20260904024100 | 88 | 173 | 3.0 | 7.0 | 0.00 | 0.00 | 0.00 | 12 | 1008.5 |
| 20260904023559 | 88 | 192 | 4.0 | 7.0 | 0.00 | 0.00 | 0.00 | 11 | 1008.6 |
| 20260904023100 | 88 | 360 | 7.0 | 8.0 | 0.00 | 0.00 | 0.00 | 11 | 1008.4 |